User: anonymous   Login
Location: Buckland
(65.9785°N, 161.1281°W)
Time: 11:24:35
(UTC+00:00)
Language:

PRISM - Orbit

View from above orbital plane
View from above orbital plane
View from above satellite
View from above satellite

Ground track
Ground track

The orbit data is extracted from the following two-line orbital elements,

1 33493U 09002B   21138.19619875  .00000228  00000-0  25066-4 0  9999
2 33493  98.1872  99.2853 0016027  31.1184 329.0983 14.97627671669802
Epoch (UTC): 18 May 2021 04:42:31
Eccentricity: 0.0016027
inclination: 98.1872°
perigee height: 563 km
apogee height: 585 km
right ascension of ascending node: 99.2853°
argument of perigee: 31.1184°
revolutions per day: 14.97627671
mean anomaly at epoch: 329.0983°
orbit number at epoch: 66980

The dashed part of the orbit path shows where the satellite is in the earth's shadow,  

DLR